Simultaneous Nadir Overpasses (SNOs) Predictions

Prediction of SNOs between FY3D and NOAA-19 Satellite Orbit:

Table of predicted SNOs for the next 14.0 days since TLE Epoch: 3/2/2024
Index Date (FY3D) Time (FY3D) Lat,Lon (FY3D) SZA (FY3D ) Date (NOAA-19) Time (NOAA-19) Lat,Lon (NOAA-19) SZA (NOAA-19 ) Distance(km) Time Diff (sec)
1 03/14/2024 12:07:48 75.66, -3.43 77.84 03/14/2024 12:06:42 75.70, -6.53 77.95 85.10 66
2 03/14/2024 12:58:43 -76.13, 162.29 101.69 03/14/2024 12:57:28 -76.09, 162.14 101.71 5.33 75
3 03/14/2024 13:49:29 76.12, -30.39 78.30 03/14/2024 13:48:31 76.12, -30.53 78.30 4.01 58
4 03/14/2024 14:40:14 -76.13, 136.90 101.71 03/14/2024 14:39:25 -76.15, 136.87 101.68 2.73 49
5 03/14/2024 15:31:01 76.17, -55.93 78.32 03/14/2024 15:30:28 76.18, -55.81 78.33 3.31 33
6 03/14/2024 16:21:46 -76.18, 111.36 101.69 03/14/2024 16:21:23 -76.17, 111.43 101.70 2.12 23
7 03/14/2024 17:12:32 76.17, -81.31 78.29 03/14/2024 17:12:26 76.19, -81.25 78.31 2.75 6
8 03/14/2024 18:03:17 -76.18, 85.97 101.72 03/14/2024 18:03:21 -76.18, 85.99 101.72 0.39 4
9 03/14/2024 18:54:02 76.17,-106.70 78.27 03/14/2024 18:54:23 76.20,-106.69 78.30 3.53 21
10 03/14/2024 19:44:47 -76.18, 60.59 101.74 03/14/2024 19:45:18 -76.19, 60.55 101.73 2.01 31
11 03/14/2024 20:35:34 76.22,-132.24 78.29 03/14/2024 20:36:21 76.22,-132.13 78.28 3.04 47
12 03/14/2024 21:26:19 -76.22, 35.05 101.72 03/14/2024 21:27:16 -76.21, 35.11 101.75 2.60 57
13 03/14/2024 22:17:05 76.22,-157.63 78.26 03/14/2024 22:18:19 76.23,-157.57 78.27 1.98 74
14 03/14/2024 23:07:59 -76.62, 8.15 101.31 03/14/2024 23:09:06 -76.57, 11.02 101.44 74.34 67



Historial Predications of SNOs between FY3D and NOAA-19
